EW9439 Weather Reports


Display with metric or nautical units.
time (UTC)temp
F
wind
direction
speed
MPH
gust
MPH
rain 1hr
in
rain 24hr
in
rain mn
in
humidity
%
barometer
mb
20210625130116 69 355 0.0 3.0 0.00 0.00 0.00 82 1020.0
20210625124505 68 355 0.0 1.0 0.00 0.00 0.00 83 1020.1
20210625123130 68 355 0.0 4.0 0.00 0.00 0.00 85 1019.8
20210625121542 67 360 0.0 4.0 0.00 0.00 0.00 85 1019.8
20210625120128 67 19 0.0 4.0 0.00 0.00 0.00 86 1019.7
20210625120002 67 18 1.0 4.0 0.00 0.00 0.00 86 1019.7
20210625114557 66 107 0.0 2.0 0.00 0.00 0.00 88 1019.6
20210625113031 65 109 0.0 2.0 0.00 0.00 0.00 89 1019.6
20210625111655 65 109 0.0 0.0 0.00 0.00 0.00 89 1019.6
20210625111521 65 109 0.0 0.0 0.00 0.00 0.00 89 1019.7
20210625110045 65 217 0.0 0.0 0.00 0.00 0.00 90 1019.5
20210625104547 65 218 0.0 0.0 0.00 0.00 0.00 90 1019.3
20210625103008 65 218 0.0 0.0 0.00 0.00 0.00 90 1019.3
20210625101652 65 218 0.0 0.0 0.00 0.00 0.00 90 1019.4
20210625100036 65 218 0.0 0.0 0.00 0.00 0.00 89 1019.4
20210625094506 65 218 0.0 0.0 0.00 0.00 0.00 88 1019.1
20210625093115 66 218 0.0 0.0 0.00 0.00 0.00 88 1019.1
20210625091532 67 218 0.0 0.0 0.00 0.00 0.00 87 1018.9
20210625090312 67 218 0.0 0.0 0.00 0.00 0.00 86 1018.8
20210625090012 67 218 0.0 0.0 0.00 0.00 0.00 85 1018.8
20210625084545 67 218 0.0 0.0 0.00 0.00 0.00 86 1018.9
20210625083031 68 218 0.0 0.0 0.00 0.00 0.00 85 1018.9
20210625081731 69 218 0.0 0.0 0.00 0.00 0.00 84 1018.9
20210625080117 69 218 0.0 0.0 0.00 0.00 0.00 84 1018.9
20210625074517 69 218 0.0 0.0 0.00 0.00 0.00 83 1018.8
20210625073124 70 218 0.0 0.0 0.00 0.00 0.00 83 1018.8
20210625071548 70 218 0.0 0.0 0.00 0.00 0.00 80 1018.7
20210625070032 70 218 0.0 0.0 0.00 0.00 0.00 80 1018.6
20210625063045 71 218 0.0 0.0 0.00 0.00 0.00 79 1018.9
20210625061508 71 218 0.0 0.0 0.00 0.00 0.00 78 1018.8
20210625060100 71 218 0.0 0.0 0.00 0.00 0.00 78 1018.9
20210625054536 72 218 0.0 0.0 0.00 0.00 0.00 78 1019.2
20210625053150 72 182 0.0 0.0 0.00 0.00 0.00 78 1019.2
20210625051652 72 182 0.0 0.0 0.00 0.00 0.00 78 1019.4
20210625050024 72 184 0.0 0.0 0.00 0.00 0.00 79 1019.4
20210625044628 72 184 0.0 0.0 0.00 0.00 0.00 79 1019.5
20210625043139 72 184 0.0 0.0 0.00 0.00 0.00 79 1019.6
20210625040048 72 184 0.0 0.0 0.00 0.00 0.00 78 1019.4
20210625034535 73 184 0.0 0.0 0.00 0.00 0.00 77 1019.1
20210625033111 73 229 0.0 2.0 0.00 0.00 0.00 77 1019.1
20210625031539 73 242 0.0 0.0 0.00 0.00 0.00 77 1019.3
20210625030023 74 189 0.0 2.0 0.00 0.00 0.00 77 1019.3
20210625024555 74 188 0.0 2.0 0.00 0.00 0.00 77 1019.2
20210625023029 74 168 0.0 1.0 0.00 0.00 0.00 77 1019.1
20210625021659 75 168 0.0 1.0 0.00 0.00 0.00 76 1018.7
20210625020150 75 168 0.0 0.0 0.00 0.00 0.00 76 1018.6
20210625014532 75 168 0.0 0.0 0.00 0.00 0.00 75 1018.3
20210625013331 76 169 0.0 4.0 0.00 0.00 0.00 74 1018.2
20210625011655 76 177 0.0 1.0 0.00 0.00 0.00 73 1018.1
20210625010023 77 177 0.0 2.0 0.00 0.00 0.00 72 1018.2
20210625004745 77 255 0.0 0.0 0.00 0.00 0.00 72 1018.2
20210625003120 77 255 0.0 0.0 0.00 0.00 0.00 71 1017.9
20210625001523 78 266 0.0 1.0 0.00 0.00 0.00 71 1017.9
20210625000127 78 321 0.0 0.0 0.00 0.00 0.00 72 1017.8
20210624234605 78 321 0.0 0.0 0.00 0.00 0.00 71 1017.8
20210624233023 79 319 0.0 0.0 0.00 0.00 0.00 70 1017.6
20210624231616 79 360 0.0 0.0 0.00 0.00 0.00 69 1017.6
20210624230149 80 300 0.0 0.0 0.00 0.00 0.00 68 1017.5
20210624224510 79 273 0.0 0.0 0.00 0.00 0.00 67 1017.5
20210624223147 79 171 0.0 0.0 0.00 0.00 0.00 67 1017.6
20210624221543 79 344 0.0 0.0 0.00 0.00 0.00 67 1017.8
20210624220033 80 217 0.0 5.0 0.00 0.00 0.00 67 1017.9
20210624214647 79 187 0.0 0.0 0.00 0.00 0.00 66 1018.2
20210624213040 79 209 0.0 0.0 0.00 0.00 0.00 67 1018.2
20210624211546 80 360 0.0 0.0 0.00 0.00 0.00 66 1018.2
20210624210133 81 342 0.0 6.0 0.00 0.00 0.00 64 1018.2
20210624204539 81 167 0.0 0.0 0.00 0.00 0.00 64 1018.2
20210624203007 83 172 1.0 5.0 0.00 0.00 0.00 62 1018.1
20210624201601 82 274 0.0 1.0 0.00 0.00 0.00 62 1018.2
20210624200026 80 146 0.0 0.0 0.00 0.00 0.00 65 1018.3
20210624194504 80 207 0.0 4.0 0.00 0.00 0.00 66 1018.4
20210624193224 80 306 0.0 0.0 0.00 0.00 0.00 66 1018.5
20210624191550 80 196 0.0 5.0 0.00 0.00 0.00 68 1018.7
20210624190005 80 71 0.0 0.0 0.00 0.00 0.00 69 1019.0
20210624184619 79 125 0.0 1.0 0.00 0.00 0.00 69 1019.3
20210624183038 80 70 1.0 6.0 0.00 0.00 0.00 68 1019.2
20210624181514 79 101 0.0 1.0 0.00 0.00 0.00 70 1019.3
20210624180140 79 191 0.0 5.0 0.00 0.00 0.00 69 1019.4
20210624174622 80 121 0.0 0.0 0.00 0.00 0.00 67 1019.6
20210624173011 79 11 0.0 4.0 0.00 0.00 0.00 70 1019.7
20210624171720 78 155 0.0 1.0 0.00 0.00 0.00 72 1019.8
20210624170056 77 324 0.0 0.0 0.00 0.00 0.00 73 1020.0
20210624164512 77 333 0.0 5.0 0.00 0.00 0.00 73 1020.2
20210624163135 78 187 0.0 0.0 0.00 0.00 0.00 72 1020.2
20210624161648 77 216 0.0 8.0 0.00 0.00 0.00 72 1020.4
20210624160019 77 192 0.0 1.0 0.00 0.00 0.00 72 1020.4
20210624154735 76 173 0.0 4.0 0.00 0.00 0.00 74 1020.4
20210624153033 76 210 0.0 4.0 0.00 0.00 0.00 75 1020.1
20210624151512 76 126 0.0 7.0 0.00 0.00 0.00 75 1019.9
20210624150127 75 342 0.0 6.0 0.00 0.00 0.00 75 1019.9
20210624144546 75 360 0.0 6.0 0.00 0.00 0.00 76 1020.0
20210624143012 74 331 0.0 7.0 0.00 0.00 0.00 79 1020.0
20210624141605 74 159 0.0 0.0 0.00 0.00 0.00 79 1019.9
20210624140109 73 301 0.0 1.0 0.00 0.00 0.00 81 1020.0
20210624134511 72 317 0.0 0.0 0.00 0.00 0.00 83 1020.1
20210624133117 71 63 0.0 1.0 0.00 0.00 0.00 85 1020.2
20210624131541 71 186 0.0 0.0 0.00 0.00 0.00 86 1019.9